CW0775 Weather Reports


time (UTC)temp
F
wind
direction
speed
knots
gust
knots
rain 1hr
in
rain 24hr
in
rain mn
in
humidity
%
barometer
mb
20260905091505 68 187 4.3 7.0 0.00 0.03 0.03 66 1022.2
20260905091005 68 279 4.3 6.1 0.00 0.03 0.03 68 1022.0
20260905090506 68 291 4.3 11.3 0.00 0.03 0.03 68 1022.0
20260905090006 67 294 2.6 11.3 0.00 0.03 0.03 71 1022.0
20260905084506 67 286 4.3 8.7 0.00 0.03 0.03 72 1022.0
20260905084006 66 283 1.7 8.7 0.00 0.03 0.03 73 1022.0
20260905083505 66 285 4.3 7.0 0.00 0.03 0.03 73 1022.0
20260905081505 66 246 0.9 6.1 0.00 0.03 0.03 77 1022.0
20260905081005 65 284 4.3 8.7 0.00 0.03 0.03 77 1022.0
20260905080506 65 289 6.1 12.2 0.00 0.03 0.03 76 1022.0
20260905080006 65 264 2.6 8.7 0.00 0.03 0.03 77 1021.9
20260905074506 65 260 2.6 6.1 0.00 0.03 0.03 80 1021.7
20260905074005 64 309 2.6 6.1 0.00 0.03 0.03 81 1021.6
20260905073505 65 237 2.6 6.1 0.00 0.03 0.03 81 1021.3
20260905073005 65 305 1.7 7.0 0.00 0.03 0.03 81 1021.3
20260905071506 64 218 2.6 4.3 0.00 0.03 0.03 83 1021.0
20260905071005 65 269 0.9 2.6 0.00 0.03 0.03 84 1021.0
20260905070505 64 220 0.9 4.3 0.00 0.03 0.03 84 1021.0
20260905070005 64 268 1.7 6.1 0.00 0.03 0.03 84 1021.0
20260905064506 64 245 0.0 0.0 0.00 0.03 0.03 88 1020.7
20260905064005 64 244 0.0 1.7 0.00 0.03 0.03 88 1021.0
20260905063006 63 247 0.0 1.7 0.00 0.03 0.03 88 1020.7
20260905061005 62 242 0.0 1.7 0.00 0.03 0.03 89 1020.3
20260905060005 62 202 1.7 2.6 0.00 0.03 0.03 91 1020.3
20260905054506 59 276 0.0 1.7 0.00 0.03 0.03 96 1020.0
20260905054005 59 262 0.0 0.0 0.00 0.03 0.03 96 1020.0
20260905053505 58 274 0.0 0.0 0.00 0.03 0.03 96 1020.0
20260905053005 58 269 0.0 0.0 0.00 0.03 0.03 96 1019.9
20260905051506 56 270 0.0 1.7 0.00 0.03 0.03 97 1019.6
20260905051005 57 269 0.0 0.0 0.00 0.03 0.03 97 1019.3
20260905050506 57 268 0.0 0.0 0.00 0.03 0.03 96 1019.5
20260905050005 57 269 0.0 1.7 0.00 0.03 0.03 97 1019.6
20260905044505 57 276 0.9 1.7 0.00 0.03 0.03 96 1019.0
20260905044005 57 261 0.0 0.0 0.00 0.03 0.03 97 1019.0
20260905043505 57 273 0.0 0.0 0.00 0.03 0.03 97 1019.0
20260905043005 57 270 0.0 1.7 0.00 0.03 0.03 96 1019.0
20260905041505 56 269 0.9 1.7 0.00 0.03 0.03 96 1019.0
20260905041005 56 275 0.9 1.7 0.00 0.03 0.03 96 1018.6
20260905040506 56 270 0.0 1.7 0.00 0.03 0.03 96 1018.6
20260905034005 58 273 0.0 0.0 0.01 0.03 0.03 96 1018.6
20260905033505 58 275 0.0 0.0 0.01 0.03 0.03 95 1018.3
20260905033005 59 260 0.0 1.7 0.01 0.03 0.03 96 1018.4
20260905031505 59 268 0.0 1.7 0.01 0.03 0.03 95 1018.3
20260905031005 59 272 0.0 1.7 0.01 0.03 0.03 95 1018.3
20260905030506 59 271 0.0 1.7 0.01 0.03 0.03 95 1018.3
20260905030006 59 269 0.9 1.7 0.00 0.02 0.02 95 1018.3
20260905024506 61 252 0.0 1.7 0.00 0.02 0.02 94 1018.3
20260905024005 61 237 0.0 1.7 0.00 0.02 0.02 94 1018.3
20260905023505 62 275 0.9 1.7 0.00 0.02 0.02 93 1017.9
20260905023005 62 236 0.0 1.7 0.00 0.02 0.02 93 1017.6
20260905021506 63 255 0.0 0.0 0.01 0.02 0.02 92 1017.9
20260905021005 63 272 0.0 1.7 0.01 0.02 0.02 91 1017.9
20260905020506 63 269 0.0 2.6 0.01 0.02 0.02 91 1017.8
20260905020005 63 277 0.9 2.6 0.01 0.02 0.02 91 1017.6
20260905014505 63 265 0.0 0.0 0.01 0.02 0.02 91 1017.6
20260905014005 64 248 0.0 1.7 0.01 0.02 0.02 91 1017.6
20260905013505 64 263 0.0 1.7 0.01 0.02 0.02 90 1017.6
20260905013005 64 270 0.9 2.6 0.01 0.02 0.02 90 1017.6
20260905011505 64 260 0.0 1.7 0.00 0.01 0.01 90 1017.9
20260905011005 64 265 0.0 0.0 0.00 0.01 0.01 91 1017.8
20260905010506 64 268 0.0 1.7 0.00 0.01 0.01 91 1017.6
20260905010005 64 267 0.0 2.6 0.00 0.01 0.01 91 1017.9
20260905003505 64 270 0.0 1.7 0.00 0.01 0.01 90 1017.6
20260905001505 65 254 0.0 1.7 0.00 0.01 0.01 89 1017.6
20260905001005 65 268 0.9 1.7 0.00 0.01 0.01 89 1017.6
20260905000005 65 245 0.0 4.3 0.00 0.01 0.01 89 1017.3
20260904234505 65 246 0.0 1.7 0.01 0.01 0.01 89 1017.3
20260904234005 65 246 0.0 1.7 0.01 0.01 0.01 89 1017.3
20260904233005 64 246 0.9 2.6 0.01 0.01 0.01 89 1017.3
20260904231505 65 246 0.0 0.0 0.01 0.01 0.01 88 1017.3
20260904231005 65 243 0.0 2.6 0.01 0.01 0.01 88 1016.8
20260904230506 65 279 1.7 4.3 0.01 0.01 0.01 88 1016.9
20260904230004 66 246 0.0 13.0 0.01 0.01 0.01 87 1017.5
20260904224004 68 311 1.7 7.0 0.00 0.00 0.00 85 1016.9
20260904223505 67 285 2.6 7.0 0.00 0.00 0.00 85 1016.8
20260904223005 68 276 1.7 14.8 0.00 0.00 0.00 85 1016.7
20260904221505 68 289 5.2 15.6 0.00 0.00 0.00 85 1016.6
20260904221005 68 291 5.2 11.3 0.00 0.00 0.00 87 1016.6
20260904220505 68 266 1.7 4.3 0.00 0.00 0.00 87 1016.6
20260904220005 68 308 0.9 11.3 0.00 0.00 0.00 87 1016.6
20260904214506 68 285 4.3 11.3 0.00 0.00 0.00 87 1016.3
20260904214004 68 268 6.1 13.0 0.00 0.00 0.00 87 1016.5
20260904213504 67 291 6.1 13.0 0.00 0.00 0.00 88 1016.0
20260904213005 68 290 8.7 14.8 0.00 0.00 0.00 87 1016.2
20260904211004 69 255 7.8 18.2 0.00 0.00 0.00 81 1015.7
20260904210506 69 277 10.4 18.2 0.00 0.00 0.00 81 1015.9
20260904210004 70 279 7.8 21.7 0.00 0.00 0.00 80 1015.9
20260904204505 71 286 7.8 21.7 0.00 0.00 0.00 78 1015.7
20260904204005 71 350 13.0 15.6 0.00 0.00 0.00 77 1015.9
20260904203504 71 303 11.3 19.1 0.00 0.00 0.00 77 1015.8
20260904201504 75 304 1.7 11.3 0.00 0.00 0.00 66 1015.1
20260904201005 75 294 5.2 11.3 0.00 0.00 0.00 66 1014.9
20260904200506 74 250 2.6 7.0 0.00 0.00 0.00 67 1014.9
20260904200005 74 298 1.7 7.0 0.00 0.00 0.00 68 1014.9
20260904193505 75 273 0.9 2.6 0.00 0.00 0.00 68 1014.2
20260904193005 75 288 1.7 8.7 0.00 0.00 0.00 67 1014.2
20260904191506 76 281 2.6 7.0 0.00 0.00 0.00 64 1013.9
20260904191005 77 291 4.3 6.1 0.00 0.00 0.00 63 1013.9
20260904190505 77 238 2.6 11.3 0.00 0.00 0.00 63 1013.7
20260904190005 77 263 1.7 12.2 0.00 0.00 0.00 63 1013.9
20260904184505 77 277 1.7 12.2 0.00 0.00 0.00 63 1013.5
20260904184004 78 250 2.6 11.3 0.00 0.00 0.00 62 1013.5
20260904183505 78 294 4.3 11.3 0.00 0.00 0.00 61 1013.5
20260904183005 78 272 2.6 6.1 0.00 0.00 0.00 62 1013.5
20260904181504 78 207 0.9 6.1 0.00 0.00 0.00 62 1013.3
20260904181004 78 293 1.7 6.1 0.00 0.00 0.00 61 1013.4
20260904180505 79 324 3.5 11.3 0.00 0.00 0.00 60 1013.2
20260904180005 79 228 5.2 13.0 0.00 0.00 0.00 60 1013.3
20260904174506 80 246 6.1 12.2 0.00 0.00 0.00 59 1013.2
20260904173505 80 306 2.6 11.3 0.00 0.00 0.00 59 1013.0
20260904173005 80 229 5.2 11.3 0.00 0.00 0.00 58 1013.0
20260904171505 80 275 5.2 14.8 0.00 0.00 0.00 58 1013.2
20260904171005 81 262 6.1 18.2 0.00 0.00 0.00 57 1013.2
20260904170505 81 23 3.5 12.2 0.00 0.00 0.00 57 1013.2
20260904164505 82 255 5.2 13.0 0.00 0.00 0.00 55 1012.9
20260904164005 82 259 5.2 14.8 0.00 0.00 0.00 56 1012.9
20260904163505 83 273 2.6 11.3 0.00 0.00 0.00 55 1012.9
20260904161505 82 286 10.4 21.7 0.00 0.00 0.00 54 1013.1
20260904161004 83 279 6.1 13.0 0.00 0.00 0.00 54 1013.0
20260904160505 83 280 5.2 12.2 0.00 0.00 0.00 53 1012.9
20260904160004 83 258 5.2 13.0 0.00 0.00 0.00 54 1013.0
20260904154505 82 283 7.8 12.2 0.00 0.00 0.00 54 1012.9
20260904153505 83 285 7.0 13.0 0.00 0.00 0.00 54 1012.9
20260904151506 84 358 4.3 14.8 0.00 0.00 0.00 52 1012.7
20260904144505 86 209 5.2 12.2 0.00 0.00 0.00 50 1012.9
20260904144004 86 307 4.3 21.7 0.00 0.00 0.00 49 1012.7
20260904143005 85 281 10.4 19.1 0.00 0.00 0.00 50 1012.6
20260904141504 86 287 6.1 15.6 0.00 0.00 0.00 48 1012.5
20260904141004 86 233 9.6 15.6 0.00 0.00 0.00 48 1012.6
20260904140505 86 253 6.1 15.6 0.00 0.00 0.00 48 1012.7
20260904140004 87 273 7.8 19.1 0.00 0.00 0.00 48 1012.7
20260904134506 86 288 6.1 15.6 0.00 0.00 0.00 48 1012.9
20260904134004 86 256 7.0 13.0 0.00 0.00 0.00 48 1012.9
20260904133505 86 316 6.1 8.7 0.00 0.00 0.00 49 1012.9
20260904133004 86 307 5.2 13.0 0.00 0.00 0.00 50 1012.9
20260904131505 86 283 6.1 13.0 0.00 0.00 0.00 50 1013.0
20260904131005 86 304 4.3 13.0 0.00 0.00 0.00 49 1013.0
20260904130505 85 279 7.8 13.0 0.00 0.00 0.00 51 1013.2
20260904130005 85 320 6.1 14.8 0.00 0.00 0.00 50 1013.2
20260904124005 84 260 9.6 14.8 0.00 0.00 0.00 52 1013.5
20260904123504 85 271 8.7 13.0 0.00 0.00 0.00 51 1013.6
20260904123004 85 298 6.1 35.6 0.00 0.00 0.00 52 1013.9
20260904121004 85 297 6.1 13.0 0.00 0.00 0.00 52 1013.7
20260904120505 85 187 5.2 11.3 0.00 0.00 0.00 53 1013.6
20260904120004 84 284 8.7 18.2 0.00 0.00 0.00 53 1013.9
20260904114506 84 238 6.1 11.3 0.00 0.00 0.00 54 1014.2
20260904114003 83 305 6.1 15.6 0.00 0.00 0.00 56 1014.2
20260904113505 84 239 6.1 11.3 0.00 0.00 0.00 55 1014.2
20260904111504 82 285 7.8 14.8 0.00 0.00 0.00 58 1014.5
20260904111004 82 280 8.7 21.7 0.00 0.00 0.00 57 1014.4
20260904110505 83 304 5.2 8.7 0.00 0.00 0.00 57 1014.5
20260904110004 83 287 5.2 15.6 0.00 0.00 0.00 58 1014.6
20260904104504 82 323 8.7 19.1 0.00 0.00 0.00 58 1014.6
20260904104004 82 261 6.1 15.6 0.00 0.00 0.00 59 1014.6
20260904103503 83 279 8.7 14.8 0.00 0.00 0.00 59 1014.7
20260904103004 82 249 5.2 15.6 0.00 0.00 0.00 59 1014.9
20260904101504 81 289 4.3 11.3 0.00 0.00 0.00 61 1014.9
20260904100004 80 279 8.7 19.1 0.00 0.00 0.00 63 1014.9
20260904094004 81 292 11.3 24.3 0.00 0.00 0.00 62 1015.4
20260904093505 81 306 6.1 12.2 0.00 0.00 0.00 61 1015.4
20260904093006 81 307 4.3 14.8 0.00 0.00 0.00 62 1015.3